| time (UTC) | temp C | wind direction | speed KPH | gust KPH | rain 1hr cm | rain 24hr cm | rain mn cm | humidity % | barometer mb |
| 20260507070015 | 9 | 273 | 6.4 | 9.7 | 0.00 | 0.56 | 0.08 | 90 | 1006.8 |
| 20260507064514 | 8 | 245 | 6.4 | 9.7 | 0.00 | 0.56 | 0.08 | 93 | 1006.7 |
| 20260507063013 | 8 | 263 | 6.4 | 9.7 | 0.00 | 0.56 | 0.08 | 93 | 1006.8 |
| 20260507061510 | 8 | 101 | 0.0 | 1.6 | 0.00 | 0.56 | 0.08 | 96 | 1006.7 |
| 20260507060009 | 7 | 75 | 0.0 | 4.8 | 0.00 | 0.56 | 0.08 | 96 | 1006.6 |
| 20260507054503 | 7 | 101 | 1.6 | 3.2 | 0.00 | 0.56 | 0.08 | 96 | 1006.6 |
| 20260507053005 | 7 | 83 | 1.6 | 3.2 | 0.00 | 0.56 | 0.08 | 97 | 1006.5 |
| 20260507051502 | 6 | 96 | 1.6 | 3.2 | 0.00 | 0.56 | 0.08 | 97 | 1006.5 |
| 20260507044602 | 5 | 85 | 0.0 | 1.6 | 0.00 | 0.56 | 0.08 | 97 | 1006.3 |
| 20260507043057 | -17 | 0.0 | 0.0 | 0.00 | 0.56 | 0.08 | 1006.2 | ||
| 20260507041555 | -17 | 0.0 | 0.0 | 0.00 | 0.56 | 0.08 | 1006.1 | ||
| 20260507040048 | -17 | 0.0 | 0.0 | 0.00 | 0.56 | 0.08 | 1006.1 | ||
| 20260507034557 | -17 | 0.0 | 0.0 | 0.00 | 0.56 | 0.08 | 1006.1 | ||
| 20260507033057 | 5 | 124 | 0.0 | 1.6 | 0.00 | 0.56 | 0.08 | 100 | 1006.0 |
| 20260507031538 | 6 | 123 | 1.6 | 3.2 | 0.00 | 0.56 | 0.08 | 96 | 1006.0 |
| 20260507030035 | 6 | 127 | 0.0 | 3.2 | 0.00 | 0.56 | 0.08 | 96 | 1006.0 |
| 20260507024534 | 6 | 234 | 0.0 | 0.0 | 0.00 | 0.56 | 0.08 | 96 | 1005.8 |
| 20260507023032 | 6 | 235 | 0.0 | 0.0 | 0.00 | 0.56 | 0.08 | 96 | 1005.7 |
| 20260507021529 | 6 | 235 | 0.0 | 1.6 | 0.00 | 0.56 | 0.08 | 96 | 1005.8 |
| 20260507020032 | 7 | 221 | 0.0 | 3.2 | 0.00 | 0.56 | 0.08 | 96 | 1005.7 |
| 20260507014528 | 7 | 221 | 0.0 | 3.2 | 0.00 | 0.56 | 0.08 | 96 | 1005.6 |
| 20260507013026 | 7 | 195 | 0.0 | 1.6 | 0.00 | 0.56 | 0.08 | 96 | 1005.4 |
| 20260507011526 | 7 | 195 | 0.0 | 1.6 | 0.00 | 0.56 | 0.08 | 96 | 1005.5 |
| 20260507010032 | 7 | 235 | 0.0 | 4.8 | 0.03 | 0.56 | 0.08 | 96 | 1005.6 |
| 20260507004525 | 7 | 58 | 0.0 | 3.2 | 0.05 | 0.56 | 0.08 | 96 | 1005.4 |
| 20260507003023 | 7 | 266 | 0.0 | 4.8 | 0.05 | 0.56 | 0.08 | 96 | 1005.6 |
| 20260507001523 | 7 | 242 | 1.6 | 12.9 | 0.05 | 0.56 | 0.08 | 96 | 1005.7 |
| 20260507000025 | 7 | 276 | 1.6 | 12.9 | 0.05 | 0.53 | 0.05 | 96 | 1005.6 |
| 20260506234540 | 7 | 71 | 0.0 | 12.9 | 0.05 | 0.51 | 0.05 | 96 | 1005.9 |
| 20260506233020 | 7 | 74 | 0.0 | 12.9 | 0.03 | 0.51 | 0.03 | 96 | 1005.7 |
| 20260506231519 | 7 | 291 | 0.0 | 12.9 | 0.03 | 0.51 | 0.03 | 96 | 1005.7 |
| 20260506230018 | 7 | 43 | 0.0 | 12.9 | 0.00 | 0.48 | 0.00 | 96 | 1005.6 |
| 20260506224525 | 7 | 43 | 0.0 | 12.9 | 0.00 | 0.48 | 0.00 | 95 | 1005.4 |
| 20260506223014 | 7 | 63 | 0.0 | 12.9 | 0.03 | 0.48 | 0.00 | 95 | 1005.2 |
| 20260506221514 | 7 | 242 | 0.0 | 12.9 | 0.05 | 0.48 | 0.00 | 95 | 1005.1 |
| 20260506220026 | 7 | 296 | 3.2 | 12.9 | 0.05 | 0.48 | 0.48 | 95 | 1005.1 |
| 20260506214509 | 7 | 61 | 0.0 | 12.9 | 0.08 | 0.48 | 0.48 | 95 | 1005.0 |
| 20260506213007 | 8 | 83 | 0.0 | 12.9 | 0.05 | 0.46 | 0.46 | 94 | 1005.1 |
| 20260506211511 | 8 | 239 | 1.6 | 12.9 | 0.05 | 0.43 | 0.43 | 94 | 1005.2 |
| 20260506210005 | 8 | 248 | 0.0 | 12.9 | 0.03 | 0.43 | 0.43 | 94 | 1005.0 |
| 20260506204505 | 8 | 297 | 0.0 | 12.9 | 0.03 | 0.41 | 0.41 | 94 | 1004.8 |
| 20260506203004 | 8 | 271 | 1.6 | 12.9 | 0.03 | 0.41 | 0.41 | 94 | 1004.8 |
| 20260506201503 | 8 | 275 | 1.6 | 12.9 | 0.05 | 0.41 | 0.41 | 92 | 1004.6 |
| 20260506200004 | 8 | 299 | 1.6 | 12.9 | 0.05 | 0.41 | 0.41 | 93 | 1004.6 |
| 20260506194502 | 8 | 94 | 1.6 | 12.9 | 0.05 | 0.38 | 0.38 | 94 | 1004.5 |
| 20260506193001 | 8 | 256 | 0.0 | 12.9 | 0.05 | 0.38 | 0.38 | 94 | 1004.3 |
| 20260506191501 | 9 | 281 | 3.2 | 12.9 | 0.05 | 0.36 | 0.36 | 93 | 1004.2 |
| 20260506190003 | 9 | 294 | 6.4 | 12.9 | 0.10 | 0.36 | 0.36 | 93 | 1004.0 |
| 20260506184603 | 9 | 290 | 6.4 | 12.9 | 0.08 | 0.33 | 0.33 | 93 | 1003.7 |
| 20260506183103 | 9 | 295 | 6.4 | 11.3 | 0.05 | 0.33 | 0.33 | 93 | 1003.4 |
| 20260506181625 | 10 | 264 | 1.6 | 9.7 | 0.05 | 0.30 | 0.30 | 93 | 1003.1 |
| 20260506180059 | 10 | 239 | 3.2 | 9.7 | 0.00 | 0.25 | 0.25 | 94 | 1002.8 |
| 20260506174557 | 10 | 281 | 4.8 | 9.7 | 0.00 | 0.25 | 0.25 | 93 | 1002.7 |
| 20260506173122 | 10 | 221 | 3.2 | 8.0 | 0.00 | 0.25 | 0.25 | 91 | 1002.3 |
| 20260506171603 | 10 | 255 | 3.2 | 8.0 | 0.03 | 0.25 | 0.25 | 93 | 1002.3 |
| 20260506170104 | 10 | 290 | 3.2 | 8.0 | 0.03 | 0.25 | 0.25 | 92 | 1002.5 |
| 20260506164553 | 10 | 274 | 4.8 | 8.0 | 0.05 | 0.25 | 0.25 | 91 | 1002.5 |
| 20260506163055 | 10 | 262 | 3.2 | 8.0 | 0.05 | 0.25 | 0.25 | 88 | 1002.8 |
| 20260506161552 | 10 | 303 | 3.2 | 8.0 | 0.05 | 0.23 | 0.23 | 88 | 1002.6 |
| 20260506160107 | 10 | 281 | 4.8 | 22.5 | 0.05 | 0.23 | 0.23 | 88 | 1002.8 |
| 20260506154550 | 10 | 295 | 6.4 | 22.5 | 0.05 | 0.23 | 0.23 | 87 | 1002.8 |
| 20260506153052 | 10 | 257 | 4.8 | 22.5 | 0.08 | 0.23 | 0.23 | 88 | 1002.9 |
| 20260506151548 | 10 | 280 | 4.8 | 22.5 | 0.08 | 0.20 | 0.20 | 88 | 1003.0 |
| 20260506150050 | 10 | 285 | 4.8 | 22.5 | 0.08 | 0.20 | 0.20 | 90 | 1003.0 |
| 20260506144550 | 10 | 268 | 4.8 | 22.5 | 0.05 | 0.18 | 0.18 | 89 | 1003.1 |
| 20260506143046 | 10 | 288 | 8.0 | 22.5 | 0.05 | 0.15 | 0.15 | 88 | 1003.0 |
| 20260506141545 | 10 | 263 | 4.8 | 22.5 | 0.05 | 0.13 | 0.13 | 89 | 1003.1 |
| 20260506140045 | 10 | 287 | 4.8 | 22.5 | 0.05 | 0.13 | 0.13 | 90 | 1003.3 |
| 20260506134547 | 10 | 283 | 8.0 | 22.5 | 0.05 | 0.13 | 0.13 | 90 | 1003.4 |
| 20260506133042 | 10 | 269 | 8.0 | 22.5 | 0.03 | 0.08 | 0.08 | 90 | 1003.5 |
| 20260506131556 | 10 | 291 | 9.7 | 22.5 | 0.05 | 0.08 | 0.08 | 86 | 1003.5 |
| 20260506130046 | 11 | 268 | 3.2 | 22.5 | 0.08 | 0.08 | 0.08 | 87 | 1003.3 |
| 20260506124540 | 11 | 240 | 8.0 | 22.5 | 0.08 | 0.08 | 0.08 | 87 | 1003.4 |
| 20260506123039 | 11 | 280 | 6.4 | 22.5 | 0.05 | 0.05 | 0.05 | 86 | 1003.6 |
| 20260506121538 | 11 | 266 | 11.3 | 22.5 | 0.03 | 0.03 | 0.03 | 83 | 1003.5 |
| 20260506120037 | 12 | 283 | 14.5 | 22.5 | 0.00 | 0.00 | 0.00 | 76 | 1003.4 |
| 20260506114535 | 12 | 255 | 3.2 | 22.5 | 0.00 | 0.00 | 0.00 | 71 | 1003.4 |
| 20260506113035 | 12 | 301 | 1.6 | 22.5 | 0.00 | 0.00 | 0.00 | 74 | 1003.6 |
| 20260506111532 | 12 | 252 | 3.2 | 22.5 | 0.00 | 0.00 | 0.00 | 72 | 1003.8 |
| 20260506110031 | 12 | 237 | 4.8 | 22.5 | 0.00 | 0.00 | 0.00 | 71 | 1003.8 |
| 20260506104531 | 12 | 253 | 9.7 | 22.5 | 0.00 | 0.00 | 0.00 | 67 | 1003.9 |
| 20260506103037 | 13 | 273 | 6.4 | 22.5 | 0.00 | 0.00 | 0.00 | 65 | 1004.0 |
| 20260506101530 | 13 | 138 | 1.6 | 20.9 | 0.00 | 0.00 | 0.00 | 63 | 1004.2 |
| 20260506100034 | 12 | 33 | 3.2 | 20.9 | 0.00 | 0.00 | 0.00 | 65 | 1004.3 |
| 20260506094534 | 12 | 187 | 1.6 | 20.9 | 0.00 | 0.00 | 0.00 | 66 | 1004.4 |
| 20260506093028 | 12 | 245 | 8.0 | 20.9 | 0.00 | 0.00 | 0.00 | 65 | 1004.3 |
| 20260506091526 | 12 | 301 | 3.2 | 20.9 | 0.00 | 0.00 | 0.00 | 66 | 1004.4 |
| 20260506090021 | 11 | 277 | 6.4 | 20.9 | 0.00 | 0.00 | 0.00 | 68 | 1004.6 |
| 20260506084522 | 11 | 274 | 1.6 | 20.9 | 0.00 | 0.00 | 0.00 | 72 | 1004.5 |
| 20260506083020 | 11 | 285 | 6.4 | 20.9 | 0.00 | 0.00 | 0.00 | 73 | 1004.6 |
| 20260506081518 | 11 | 245 | 6.4 | 20.9 | 0.00 | 0.00 | 0.00 | 70 | 1004.7 |
| 20260506073015 | 12 | 271 | 6.4 | 19.3 | 0.00 | 0.00 | 0.00 | 61 | 1004.6 |
| 20260506071513 | 11 | 262 | 8.0 | 19.3 | 0.00 | 0.00 | 0.00 | 65 | 1004.6 |